TimeCDT,TemperatureF,Dew PointF,Humidity,Sea Level PressureIn,VisibilityMPH,Wind Direction,Wind SpeedMPH,Gust SpeedMPH,PrecipitationIn,Events,Conditions,WindDirDegrees,DateUTC
12:15 AM,39.4,32.2,75,29.72,10.0,North,13.8,-,N/A,,Clear,360,2013-03-22 05:15:00
12:35 AM,38.5,32.2,78,29.73,10.0,North,11.5,-,N/A,,Clear,10,2013-03-22 05:35:00
12:55 AM,37.6,32.4,81,29.75,10.0,North,15.0,-,N/A,,Clear,10,2013-03-22 05:55:00
1:15 AM,37.4,32.5,83,29.76,10.0,NNE,13.8,19.6,N/A,,Scattered Clouds,20,2013-03-22 06:15:00
1:35 AM,36.9,32.7,85,29.78,10.0,NNE,23.0,27.6,N/A,,Mostly Cloudy,30,2013-03-22 06:35:00
1:55 AM,37.0,32.5,84,29.78,10.0,NNE,18.4,28.8,N/A,,Overcast,20,2013-03-22 06:55:00
2:15 AM,36.7,32.2,84,29.79,10.0,NNE,20.7,26.5,N/A,,Overcast,20,2013-03-22 07:15:00
2:35 AM,36.0,31.8,85,29.80,10.0,NNE,20.7,26.5,N/A,,Overcast,20,2013-03-22 07:35:00
2:55 AM,35.2,31.1,85,29.79,10.0,NNE,16.1,23.0,N/A,,Overcast,30,2013-03-22 07:55:00
3:15 AM,34.7,31.1,87,29.81,10.0,NNE,15.0,24.2,N/A,,Mostly Cloudy,30,2013-03-22 08:15:00
3:35 AM,33.4,30.6,89,29.81,10.0,NNE,10.4,-,N/A,,Scattered Clouds,30,2013-03-22 08:35:00
3:55 AM,32.5,29.3,88,29.80,10.0,NNE,13.8,18.4,N/A,,Clear,20,2013-03-22 08:55:00
4:15 AM,32.0,29.1,89,29.81,10.0,NNE,10.4,-,N/A,,Scattered Clouds,20,2013-03-22 09:15:00
4:35 AM,32.9,29.3,87,29.82,10.0,NNE,11.5,-,N/A,,Overcast,30,2013-03-22 09:35:00
4:55 AM,32.4,29.8,90,29.80,7.0,NNE,12.7,19.6,N/A,,Overcast,20,2013-03-22 09:55:00
5:15 AM,32.0,29.7,91,29.81,7.0,NNE,10.4,-,N/A,,Mostly Cloudy,30,2013-03-22 10:15:00
5:35 AM,32.0,29.3,90,29.82,7.0,North,8.1,-,N/A,,Overcast,10,2013-03-22 10:35:00
5:55 AM,31.1,28.2,89,29.82,10.0,NNE,9.2,-,N/A,,Overcast,20,2013-03-22 10:55:00
6:15 AM,30.7,28.0,90,29.82,7.0,North,9.2,-,N/A,,Overcast,10,2013-03-22 11:15:00
6:35 AM,29.3,27.3,92,29.82,7.0,North,9.2,-,N/A,,Overcast,10,2013-03-22 11:35:00
6:55 AM,28.9,27.0,92,29.83,7.0,North,9.2,-,N/A,,Overcast,360,2013-03-22 11:55:00
7:15 AM,28.0,26.4,94,29.83,7.0,North,8.1,-,N/A,,Scattered Clouds,10,2013-03-22 12:15:00
7:35 AM,27.3,25.7,94,29.84,5.0,North,6.9,-,N/A,,Clear,360,2013-03-22 12:35:00
7:55 AM,26.6,25.3,95,29.84,4.0,North,6.9,-,N/A,,Clear,360,2013-03-22 12:55:00
8:15 AM,26.6,25.3,95,29.85,4.0,North,8.1,-,N/A,,Clear,350,2013-03-22 13:15:00
8:35 AM,27.7,26.2,94,29.86,5.0,North,9.2,-,N/A,,Clear,350,2013-03-22 13:35:00
8:55 AM,29.1,26.8,91,29.87,5.0,NNW,9.2,-,N/A,,Clear,340,2013-03-22 13:55:00
9:15 AM,30.7,27.5,88,29.89,7.0,NNW,8.1,-,N/A,,Clear,340,2013-03-22 14:15:00
9:35 AM,32.2,28.4,86,29.90,7.0,NNW,6.9,-,N/A,,Clear,330,2013-03-22 14:35:00
9:55 AM,34.5,28.8,79,29.90,10.0,North,9.2,-,N/A,,Clear,350,2013-03-22 14:55:00
10:15 AM,36.1,29.3,76,29.90,10.0,North,9.2,-,N/A,,Clear,350,2013-03-22 15:15:00
10:35 AM,38.5,29.5,70,29.91,10.0,North,8.1,-,N/A,,Clear,360,2013-03-22 15:35:00
10:55 AM,40.1,29.5,66,29.91,10.0,North,6.9,-,N/A,,Clear,360,2013-03-22 15:55:00
11:15 AM,41.7,29.7,62,29.91,10.0,NE,9.2,-,N/A,,Clear,40,2013-03-22 16:15:00
11:35 AM,42.8,29.5,59,29.91,10.0,North,8.1,-,N/A,,Clear,360,2013-03-22 16:35:00
11:55 AM,43.5,29.7,58,29.90,10.0,North,6.9,-,N/A,,Clear,360,2013-03-22 16:55:00
12:35 PM,45.7,29.3,53,29.90,10.0,North,5.8,-,N/A,,Clear,10,2013-03-22 17:35:00
1:15 PM,49.3,29.8,47,29.88,10.0,East,11.5,-,N/A,,Clear,100,2013-03-22 18:15:00
1:35 PM,48.6,28.8,46,29.87,10.0,ESE,10.4,-,N/A,,Clear,120,2013-03-22 18:35:00
1:55 PM,50.0,29.1,45,29.86,10.0,East,8.1,-,N/A,,Clear,80,2013-03-22 18:55:00
2:15 PM,50.5,28.0,42,29.85,10.0,East,4.6,-,N/A,,Clear,80,2013-03-22 19:15:00
2:35 PM,51.1,28.4,42,29.83,10.0,ESE,6.9,-,N/A,,Clear,110,2013-03-22 19:35:00
2:55 PM,50.7,26.6,39,29.82,10.0,ESE,3.5,9.2,N/A,,Clear,110,2013-03-22 19:55:00
3:15 PM,51.6,27.7,40,29.80,10.0,SE,5.8,-,N/A,,Clear,130,2013-03-22 20:15:00
3:35 PM,53.1,27.9,38,29.78,10.0,ESE,9.2,-,N/A,,Clear,120,2013-03-22 20:35:00
3:55 PM,53.1,27.5,37,29.78,10.0,ESE,3.5,-,N/A,,Clear,110,2013-03-22 20:55:00
4:15 PM,54.3,28.2,37,29.77,10.0,SSE,11.5,17.3,N/A,,Clear,150,2013-03-22 21:15:00
4:35 PM,54.9,28.2,36,29.76,10.0,SE,8.1,16.1,N/A,,Clear,130,2013-03-22 21:35:00
4:55 PM,54.7,28.9,37,29.76,10.0,SE,12.7,-,N/A,,Clear,140,2013-03-22 21:55:00
5:15 PM,55.2,28.8,36,29.75,10.0,South,12.7,18.4,N/A,,Clear,190,2013-03-22 22:15:00
5:55 PM,55.0,29.5,38,29.74,10.0,SSE,10.4,-,N/A,,Clear,150,2013-03-22 22:55:00
6:15 PM,54.9,29.8,38,29.75,10.0,SSE,5.8,16.1,N/A,,Clear,160,2013-03-22 23:15:00
6:35 PM,54.5,30.7,40,29.75,10.0,SSE,8.1,11.5,N/A,,Clear,160,2013-03-22 23:35:00
6:55 PM,54.1,30.7,41,29.76,10.0,South,6.9,-,N/A,,Clear,180,2013-03-22 23:55:00
7:15 PM,53.1,30.4,42,29.76,10.0,SSE,5.8,-,N/A,,Clear,160,2013-03-23 00:15:00
7:35 PM,51.8,30.6,44,29.76,10.0,SSE,9.2,-,N/A,,Clear,150,2013-03-23 00:35:00
7:55 PM,50.7,30.4,46,29.75,10.0,SSE,8.1,-,N/A,,Clear,160,2013-03-23 00:55:00
8:15 PM,47.7,30.4,51,29.76,10.0,SE,9.2,-,N/A,,Clear,130,2013-03-23 01:15:00
8:35 PM,45.9,30.4,55,29.76,10.0,ESE,9.2,-,N/A,,Clear,120,2013-03-23 01:35:00
8:55 PM,46.8,30.9,54,29.75,10.0,ESE,11.5,-,N/A,,Clear,120,2013-03-23 01:55:00
9:15 PM,46.4,30.9,55,29.74,10.0,ESE,13.8,-,N/A,,Clear,120,2013-03-23 02:15:00
9:35 PM,45.7,30.7,56,29.75,10.0,SE,13.8,-,N/A,,Clear,130,2013-03-23 02:35:00
9:55 PM,44.6,30.7,58,29.74,10.0,ESE,12.7,-,N/A,,Clear,120,2013-03-23 02:55:00
10:15 PM,43.2,30.7,62,29.75,10.0,SE,9.2,-,N/A,,Clear,130,2013-03-23 03:15:00
10:35 PM,42.1,30.6,64,29.76,10.0,SE,10.4,-,N/A,,Clear,130,2013-03-23 03:35:00
10:55 PM,42.1,30.9,65,29.75,10.0,SE,12.7,-,N/A,,Clear,130,2013-03-23 03:55:00
11:35 PM,41.9,31.3,66,29.73,10.0,SE,15.0,-,N/A,,Clear,140,2013-03-23 04:35:00
11:55 PM,41.2,31.5,68,29.74,10.0,SE,13.8,-,N/A,,Clear,140,2013-03-23 04:55:00